カタログに戻る

ONEWEB-0301

運用中通信PO
NORAD 49090·PAYLOAD·🇬🇧 United Kingdom

打ち上げ Aug 21, 2021 から Baikonur Cosmodrome

Loading…

次のパス (今後24時間)

TLE

最新Source: CelesTrak SupGP

元期: Sep 14, 2026, 14:42 UTC

1 49090C 21075R   26257.61303657  .00004089  00000+0  11382-1 0  2573
2 49090  87.8987 332.9036 0002246  99.3730   6.3275 13.12437349    13

AllMySatでONEWEB-0301をリアルタイム追跡

Download on the App Store